星链-4281 (STARLINK-4281 )

导读 | 星芒AI

STARLINK-4281 是 SpaceX Starlink 卫星互联网项目中的一颗低轨卫星,属于第 5 批次发射的 Starlink 卫星之一。该卫星运行在约 550 公里的轨道高度,旨在为全球用户提供高速、低延迟的宽带互联网服务。它采用先进的相控阵天线和激光通信技术,提高网络效率与覆盖范围。STARLINK-4281 与其他 Starlink 卫星协同工作,支持偏远地区和传统网络难以覆盖区域的互联网接入。

基本信息
目录编号:
53017
目录名称:
STARLINK-4281
国际标识:
2022-076AH
轨道中心:
EARTH
卫星名称:
星链-4281
卫星全名:
星链-4281 (STARLINK-4281 )
卫星状态:
在轨 (已飞行1217 天)
发射日期:
2022-07-07 UTC
国别 :
美国 (US)
星等 :
--
轨道信息
数据来源 国际轨道数据
星历时间: 2025-11-04T13:22:55+0800
21小时前
查看轨道信息
半长轴: 6917.887km
偏心率: 0.0001434
轨道倾角: 53.217°
近地点辐角 90.305°
升交点赤经 287.354°
平近点角 269.810°
近地点: 538.759km
远地点: 540.745km
周期: 95.438分钟
每日圈数: 15.088381
详细信息
固有亮度:
5
最大亮度:
2.5
卫星平台:
Starlink v1.5
覆盖范围:
全球
运营商:
太空探索技术公司
运营商所在国:
美国
制造商(研发单位):
太空探索技术公司
制造商所在国:
美国
使用方式:
暂无
卫星简介
星链(Starlink)计划是由太空探索技术公司(SpaceX)提出的一个巨型低轨卫星互联网星座项目,计划在2019年至2024年间在太空搭建由约1.2万颗卫星组成的“星链”网络,其中1584颗将部署在地球上空550千米处的近地轨道,并从2020年开始工作。该卫星仍在工作。
2D轨道图
3D轨道图
轨道高度分析图
轨道倾角分析图
轨道综合分析图
查看轨道综合分析图